Weather History for Cape Girardeau, MO

Change the Weather History Date:

Tuesday, April 23, 2013

  Actual Average Record
Temperature  
Mean Temperature 58 °F 60 °F  
Max Temperature 71 °F 71 °F 90 °F (1965)
Min Temperature 45 °F 48 °F 34 °F (1986)
Degree Days  
Heating Degree Days 7 7  
Month to date heating degree days 231 226  
Since 1 July heating degree days 4192 4282  
Cooling Degree Days 0 1  
Month to date cooling degree days 24 17  
Year to date cooling degree days 24 21  
Growing Degree Days 8 (Base 50)    
Moisture  
Dew Point 52 °F    
Average Humidity 72    
Maximum Humidity 89    
Minimum Humidity 55    
Precipitation  
Precipitation 0.07 in 0.15 in 3.10 in (2011)
Month to date precipitation 2.97 3.22  
Year to date precipitation 12.14 14.50  
Sea Level Pressure  
Sea Level Pressure 29.96 in    
Wind  
Wind Speed 12 mph (South)    
Max Wind Speed 29 mph    
Max Gust Speed 37 mph    
Visibility 9 miles    
Events Rain    
T = Trace of Precipitation, MM = Missing Value Source: NWS Daily Summary

Daily Weather History Graph

Daily Weather History Graph

Search for Another Location

Airport:

Trip Planner

Search our weather history database for the weather conditions in past years. The results will help you decide how hot, cold, wet, or windy it might be!

Date:

Astronomy

Apr. 23, 2013 Rise Set
Actual Time 6:12 AM CDT 7:40 PM CDT
Civil Twilight 5:45 AM CDT 8:08 PM CDT
Nautical Twilight 5:12 AM CDT 8:41 PM CDT
Astronomical Twilight 4:38 AM CDT 9:15 PM CDT
Moon 5:38 PM CDT (4/23) 4:37 AM CDT (4/23)
Length of Visible Light 14h 22m
Length of Day
13h 27m
Waxing Gibbous, 94% of the Moon is Illuminated
Apr 23
Waxing Gibbous
Apr 25
Full
May 2
Last Quarter
May 9
New
May 17
First Quarter

Hourly Weather History & Observations

Time (CDT) Temp. Windchill Dew Point Humidity Pressure Visibility Wind Dir Wind Speed Gust Speed Precip Events Conditions
12:53 AM 60.1 °F - 45.0 °F 57% 30.03 in 10.0 mi South 10.4 mph - N/A   Clear
1:53 AM 59.0 °F - 46.0 °F 62% 30.02 in 10.0 mi South 9.2 mph - N/A   Partly Cloudy
2:53 AM 57.2 °F - 46.4 °F 67% 30.00 in 10.0 mi SSE 9.2 mph - N/A   Scattered Clouds
3:53 AM 55.0 °F - 46.9 °F 74% 30.00 in 10.0 mi SSE 5.8 mph - N/A   Clear
4:53 AM 55.4 °F - 46.4 °F 72% 30.00 in 10.0 mi SSE 8.1 mph - N/A   Clear
5:53 AM 55.9 °F - 46.9 °F 72% 29.99 in 10.0 mi SSE 10.4 mph - N/A   Mostly Cloudy
6:53 AM 57.0 °F - 48.9 °F 74% 29.99 in 10.0 mi SSE 8.1 mph - N/A   Clear
7:53 AM 57.0 °F - 50.0 °F 77% 29.99 in 10.0 mi SE 9.2 mph - N/A   Clear
8:53 AM 60.1 °F - 53.1 °F 78% 29.99 in 10.0 mi SSE 8.1 mph - N/A   Clear
9:53 AM 61.0 °F - 55.0 °F 81% 30.05 in 10.0 mi SSW 5.8 mph - N/A   Overcast
10:50 AM 62.6 °F - 57.2 °F 82% 30.03 in 2.5 mi South 9.2 mph - N/A   Haze
10:53 AM 63.0 °F - 57.0 °F 81% 30.03 in 1.8 mi South 8.1 mph - N/A   Haze
11:06 AM 62.6 °F - 57.2 °F 82% 30.04 in 10.0 mi SSW 10.4 mph - N/A   Mostly Cloudy
11:53 AM 64.9 °F - 59.0 °F 81% 29.99 in 10.0 mi SSE 10.4 mph - N/A   Overcast
12:53 PM 68.0 °F - 60.1 °F 76% 29.96 in 9.0 mi South 21.9 mph 25.3 mph N/A   Overcast
1:53 PM 70.0 °F - 60.1 °F 71% 29.92 in 9.0 mi South 21.9 mph 28.8 mph N/A   Mostly Cloudy
2:15 PM 69.8 °F - 59.0 °F 68% 29.92 in 10.0 mi South 21.9 mph 31.1 mph N/A   Mostly Cloudy
2:53 PM 70.0 °F - 59.0 °F 68% 29.91 in 10.0 mi South 18.4 mph 29.9 mph N/A   Mostly Cloudy
3:53 PM 69.1 °F - 57.9 °F 68% 29.88 in 10.0 mi South 15.0 mph 24.2 mph N/A   Overcast
4:53 PM 69.1 °F - 59.0 °F 70% 29.86 in 10.0 mi South 12.7 mph 21.9 mph N/A   Overcast
5:53 PM 69.1 °F - 57.9 °F 68% 29.84 in 10.0 mi South 15.0 mph - N/A   Overcast
6:53 PM 70.0 °F - 57.9 °F 65% 29.83 in 10.0 mi SSW 11.5 mph - N/A   Overcast
7:53 PM 70.0 °F - 57.9 °F 65% 29.84 in 10.0 mi SSW 13.8 mph 21.9 mph N/A   Overcast
8:53 PM 69.1 °F - 60.1 °F 73% 29.86 in 10.0 mi SSW 15.0 mph - N/A   Overcast
9:22 PM 50.0 °F - 46.4 °F 87% 29.92 in 7.0 mi NNW 24.2 mph 33.4 mph 0.03 in Rain Rain
9:40 PM 48.2 °F - 44.6 °F 87% 29.94 in 8.0 mi NNW 21.9 mph 27.6 mph 0.07 in Rain Light Rain
9:53 PM 48.0 °F - 44.1 °F 86% 29.95 in 10.0 mi NNW 16.1 mph 23.0 mph 0.07 in   Overcast
10:01 PM 48.2 °F - 44.6 °F 87% 29.95 in 10.0 mi North 16.1 mph - N/A   Overcast
10:53 PM 46.0 °F 38.8 °F 42.1 °F 86% 29.96 in 10.0 mi NNW 18.4 mph 24.2 mph N/A   Overcast
11:36 PM 46.4 °F 41.1 °F 42.8 °F 87% 29.96 in 10.0 mi NNW 11.5 mph - N/A   Overcast
11:53 PM 45.0 °F 38.9 °F 41.0 °F 86% 29.96 in 10.0 mi NNW 12.7 mph - N/A   Overcast